This is the latest recevied weather packets stored in our database for station/object KC2GYU. If no packets are shown the sender has not sent any weather packets the latest 10 day(s).
| Time | Temp. | Humidity | Pressure | Rain* | Wind** | Luminosity | Snow |
|---|---|---|---|---|---|---|---|
| 1777403356 | 15.56° C | 58% | 1020.3 hPa | 0 mm | - | 177 W/m² | - |
| 1777403055 | 15.56° C | 58% | 1020.5 hPa | 0 mm | - | 212 W/m² | - |
| 1777402752 | 15.56° C | 57% | 1020.6 hPa | 0 mm | - | 240 W/m² | - |
| 1777402448 | 15.56° C | 57% | 1020.8 hPa | 0 mm | - | 186 W/m² | - |
| 1777402146 | 16.11° C | 57% | 1020.6 hPa | 0 mm | - | 190 W/m² | - |
| 1777401841 | 16.11° C | 56% | 1020.9 hPa | 0 mm | - | 184 W/m² | - |
| 1777401540 | 16.11° C | 55% | 1020.9 hPa | 0 mm | - | 184 W/m² | - |
| 1777401235 | 16.11° C | 55% | 1021.2 hPa | 0 mm | - | 195 W/m² | - |
| 1777400931 | 16.11° C | 53% | 1021.3 hPa | 0 mm | - | 216 W/m² | - |
| 1777400627 | 16.67° C | 54% | 1021.3 hPa | 0 mm | - | 247 W/m² | - |
| 1777400326 | 16.67° C | 54% | 1021.7 hPa | 0 mm | - | 295 W/m² | - |
| 1777400021 | 16.11° C | 56% | 1021.6 hPa | 0 mm | - | 282 W/m² | - |
| 1777399718 | 16.11° C | 56% | 1021.5 hPa | 0 mm | - | 248 W/m² | - |
| 1777399415 | 15.56° C | 56% | 1021.3 hPa | 0 mm | - | 205 W/m² | - |
| 1777399113 | 16.11° C | 57% | 1021.4 hPa | 0 mm | - | 199 W/m² | - |
| 1777398810 | 16.11° C | 57% | 1021.5 hPa | 0 mm | - | 187 W/m² | - |
| 1777398507 | 16.11° C | 55% | 1021.6 hPa | 0 mm | - | 136 W/m² | - |
| 1777398203 | 16.67° C | 54% | 1021.7 hPa | 0 mm | - | 140 W/m² | - |
| 1777397900 | 17.22° C | 53% | 1021.4 hPa | 0 mm | - | 175 W/m² | - |
| 1777397596 | 17.22° C | 54% | 1021.4 hPa | 0 mm | - | 230 W/m² | - |
| 1777397292 | 17.78° C | 49% | 1021.8 hPa | 0 mm | - | 392 W/m² | - |
| 1777396989 | 18.33° C | 51% | 1021.6 hPa | 0 mm | - | 409 W/m² | - |
| 1777396686 | 18.33° C | 50% | 1021.6 hPa | 0 mm | - | 402 W/m² | - |
| 1777396382 | 18.33° C | 50% | 1021.7 hPa | 0 mm | - | 522 W/m² | - |
| 1777396079 | 17.22° C | 51% | 1021.7 hPa | 0 mm | - | 728 W/m² | - |
* Rain latest hour (hover to see other rain measurements)
** Current wind speed in m/s (hover to see current wind gust speed)